This demonstration page uses our WeatherBlox Daily Observations layout. Learn more.

Left ArrowRight Arrow

Hourly Observations for August 29, 2020

Temp ( °F °C ) Dew Point ( °F °C ) Humidity (%) Winds ( mph kmh ) Pressure ( in mb ) Visibility ( mi km ) Precip ( " mm )
12:53 am 00:53 Clear 68 20 62 16.7 81 81 NNW 5 7 29.96 1015 10 16 0.00 0.00
1:53 am 01:53 Clear 68 20 61 16.1 78 78 N 10 17 29.97 1015 10 16 0.00 0.00
2:53 am 02:53 Clear 67 19.4 60 15.6 79 79 NNE 10 17 29.94 1014 10 16 0.00 0.00
3:53 am 03:53 Clear 66 18.9 60 15.6 81 81 NNE 9 15 29.96 1015 10 16 0.00 0.00
4:53 am 04:53 Clear 65 18.3 59 15 81 81 NNE 9 15 29.98 1015 10 16 0.00 0.00
5:53 am 05:53 Clear 64 17.8 59 15 84 84 NNE 6 9 30.02 1017 10 16 0.00 0.00
6:53 am 06:53 Clear 63 17.2 58 14.4 84 84 NE 3 6 30.03 1017 10 16 0.00 0.00
7:53 am 07:53 Sunny 62 16.7 58 14.4 86 86 NNE 5 7 30.04 1017 10 16 0.00 0.00
8:53 am 08:53 Sunny 63 17.2 57 13.9 81 81 NE 7 11 30.04 1017 10 16 0.00 0.00
9:53 am 09:53 Sunny 66 18.9 55 12.8 68 68 NE 12 19 30.03 1017 10 16 0.00 0.00
10:53 am 10:53 Sunny 70 21.1 54 12.2 57 57 E 10 17 30.03 1017 10 16 0.00 0.00
11:53 am 11:53 Sunny 73 22.8 53 11.7 50 50 E 10 17 30.03 1017 10 16 0.00 0.00
12:53 pm 12:53 Sunny 73 22.8 54 12.2 51 51 E 8 13 30.02 1017 10 16 0.00 0.00
1:53 pm 13:53 Sunny 76 24.4 51 10.6 42 42 NE 8 13 30.00 1016 10 16 0.00 0.00
2:53 pm 14:53 Sunny 77 25 52 11.1 42 42 E 5 7 29.98 1015 10 16 0.00 0.00
3:53 pm 15:53 Sunny 79 26.1 46 7.8 31 31 VRB 6 9 29.96 1014 10 16 0.00 0.00
4:53 pm 16:53 Sunny 80 26.7 47 8.3 31 31 Calm 29.93 1014 10 16 0.00 0.00
5:53 pm 17:53 Sunny 79 26.1 46 7.8 31 31 NE 3 6 29.92 1013 10 16 0.00 0.00
6:53 pm 18:53 Sunny 77 25 48 8.9 36 36 E 6 9 29.91 1013 10 16 0.00 0.00
7:53 pm 19:53 Sunny 71 21.7 51 10.6 49 49 SE 7 11 29.91 1013 10 16 0.00 0.00
8:53 pm 20:53 Clear 69 20.6 51 10.6 53 53 SE 7 11 29.92 1013 10 16 0.00 0.00
9:53 pm 21:53 Clear 69 20.6 51 10.6 53 53 SSE 6 9 29.93 1013 10 16 0.00 0.00
10:53 pm 22:53 Clear 65 18.3 50 10 59 59 ESE 5 7 29.89 1012 10 16 0.00 0.00
11:53 pm 23:53 Clear 65 18.3 51 10.6 61 61 SE 3 6 29.89 1012 10 16 0.00 0.00

Powered by AerisWeather